AirNav   ATP
 
 1570 users online  

6M6 Lewis County Regional Airport
Monticello, Missouri, USA

GOING TO MONTICELLO?


FAA INFORMATION EFFECTIVE 19 JULY 2018

Location

FAA Identifier: 6M6
Lat/Long: 40-07-45.0350N / 091-40-41.7700W
40-07.750583N / 091-40.696167W
40.1291764 / -91.6782694
(estimated)
Elevation: 675 ft. / 205.7 m (surveyed)
Variation: 01E (2000)
From city: 2 miles NE of MONTICELLO, MO
Time zone: UTC -5 (UTC -6 during Standard Time)
Zip code: 63457

Airport Operations

Airport use: Open to the public
Activation date: 07/1992
Control tower: no
ARTCC: KANSAS CITY CENTER
FSS: SAINT LOUIS FLIGHT SERVICE STATION
NOTAMs facility: STL (NOTAM-D service available)
Attendance: UNATNDD
Wind indicator: lighted
Segmented circle: yes
Lights: ACTVT MIRL RY 18/36 - CTAF.
Beacon: white-green (lighted land airport)
Operates sunset to sunrise.

Airport Communications

CTAF/UNICOM: 122.7
  • UNICOM UNMONITORED.
  • APCH/DEP SVC PRVDD BY KANSAS CITY ARTCC ON FREQS 126.225/317.775 (QUINCY RCAG).

Nearby radio navigation aids

VOR radial/distance  VOR name  Freq  Var
UINr308/24.9QUINCY VORTAC113.6005E

 
NDB name  Hdg/Dist  Freq  Var  ID
KEOKUK207/23.036602EEOK . --- -.-

Airport Services

Fuel available: 100LL
Parking: tiedowns

Runway Information

Runway 18/36

Dimensions: 3500 x 60 ft. / 1067 x 18 m
Surface: concrete, in good condition
Weight bearing capacity: 
Single wheel: 30.0
Runway edge lights: medium intensity
RUNWAY 18  RUNWAY 36
Latitude: 40-08.038667N40-07.462500N
Longitude: 091-40.687000W091-40.705333W
Elevation: 664.6 ft.674.9 ft.
Traffic pattern: leftleft
Runway heading: 180 magnetic, 181 true000 magnetic, 001 true
Markings: nonprecision, in good conditionnonprecision, in good condition
Visual slope indicator: 2-light PAPI on left (3.00 degrees glide path)2-light PAPI on left (3.00 degrees glide path)
Runway end identifier lights: nono
Touchdown point: yes, no lightsyes, no lights
Obstructions: 60 ft. tree, 2765 ft. from runway, 406 ft. right of centerline, 42:1 slope to clear16 ft. road, 665 ft. from runway, 29:1 slope to clear

Airport Ownership and Management from official FAA records

Ownership: Publicly-owned
Owner: LEWIS COUNTY AIRPORT AUTHORITY
PO BOX 85
CANTON, MO 63435
Phone (660) 216-4801
Manager: JESSE ROGERS
P.O. BOX 85
CANTON, MO 63435
Phone (660) 216-4801
ALTERNATE PHONE NMBRS 660-216-4801, 660-341-0509.

Airport Operational Statistics

Aircraft based on the field: 7
Single engine airplanes: 6
Ultralights: 1
    
Aircraft operations: avg 34/week *
71% local general aviation
28% transient general aviation
<1% military
* for 12-month period ending 01 January 2015

Additional Remarks

ULTRALIGHT ACTIVITY ON & INVOF ARPT.

Instrument Procedures

NOTE: All procedures below are presented as PDF files. If you need a reader for these files, you should download the free Adobe Reader.

NOT FOR NAVIGATION. Please procure official charts for flight.
FAA instrument procedures published for use from 19 July 2018 at 0901Z to 16 August 2018 at 0900Z.

 
IAPs - Instrument Approach Procedures
RNAV (GPS) RWY 18   download (183KB)
RNAV (GPS) RWY 36   download (192KB)
VOR/DME-A   download (155KB)
NOTE: Special Take-Off Minimums/Departure Procedures apply   download (158KB)

Other nearby airports with instrument procedures:

KEOK - Keokuk Municipal Airport (23 nm NE)
KUIN - Quincy Regional Airport-Baldwin Field (25 nm SE)
KHAE - Hannibal Regional Airport (27 nm SE)
K52 - Cpt Ben Smith Airfield - Monroe City (30 nm S)
03D - Memphis Memorial Airport (32 nm NW)
 
Loc | Ops | Rwys | IFR | FBO | Links
Com | Nav | Svcs | Stats | Notes

Kansas City Aviation Department
 
Area around 6M6 (Lewis County Regional Airport)
 
Road maps at: MapQuest Bing Google
 
Aerial photo
No photo
 
Sectional chart

 
Airport distance calculator
Flying to Lewis County Regional Airport? Find the distance to fly.

From to 6M6

Sunrise and sunset
Times for 19-Jul-2018
 Local
(UTC-5)
 Zulu
(UTC)
Morning civil twilight05:2310:23
Sunrise05:5410:54
Sunset20:3201:32
Evening civil twilight21:0302:03

Current date and time
Zulu (UTC)  19-Jul-2018 17:27:09
Local (UTC-5)  19-Jul-2018 12:27:09
 
METAR
KEOK 
24nm NE 
191715Z AUTO VRB06G12KT 10SM SCT012 22/20 A2987 RMK AO2
KUIN 
24nm SE 
191714Z AUTO 11007KT 10SM FEW090 SCT110 22/19 A2990 RMK AO2 LTG DSNT NE RAE09 P0000 T02170189
KHAE 
27nm SE 
191715Z AUTO 18010G14KT 10SM CLR 24/20 A2988 RMK AO2 LTG DSNT N NE AND S
KFSW 
36nm NE 
191715Z AUTO 17009G14KT 10SM BKN010 22/21 A2989 RMK AO2
KIRK 
40nm W 
191655Z AUTO 18009KT 10SM BKN041 OVC048 26/21 A2988 RMK AO2 SLP112 T02560211
KI63 
41nm E 
191715Z AUTO 14007KT 10SM -RA SCT037 BKN050 OVC085 21/19 A2990 RMK AO2 LTG DSNT N NE AND S P0001 T02050188
KBRL 
46nm NE 
191713Z AUTO 16013KT 10SM FEW014 FEW060 BKN100 22/20 A2988 RMK AO2 LTG DSNT N-SE RAE01 TSE1654 P0000 T02170200
TAF
KUIN 
24nm SE 
191506Z 1915/2012 15009KT P6SM BKN050 FM191530 28010KT P6SM -SHRA VCTS BKN045CB TEMPO 1916/1917 28010G20KT 6SM -TSRA BKN030CB FM191700 17008G16KT P6SM VCTS BKN045CB FM200400 19007KT P6SM SCT250 FM200700 22008KT P6SM SCT250
NOTAMs
Click for the latest NOTAMs
NOTAMs are issued by the DoD/FAA and will open in a separate window not controlled by AirNav.

 

 
 

FBO, Fuel Providers, and Aircraft Ground Support

  
 Business Name 
 
 Contact 
 
 Services / Description 
 
Fuel Prices
 
Comments
  
Lewis County Airport Authority no information available

If you are affiliated with Lewis County Airport Authority and would like to show here your services, contact info, web link, logo, and more, click here
100LL
AS $4.50 
 Updated 30-May-2018
 
   write
AS=Assisted/Self Service
Update Fuel Prices
 

Would you like to see your business listed on this page?

 If your business provides an interesting product or service to pilots, flight crews, aircraft, or users of the Lewis County Regional Airport, you should consider listing it here.  To start the listing process, click on the button below
 
Add a business
 

Other Pages about Lewis County Regional Airport

Update a link
 
Copyright © AirNav, LLC. All rights reserved. Privacy Policy  Contact